Satellite: INMARSAT 3-F1
Catalog number: 23839
Epoch time:      103035.83636825
Element set:     862 
Inclination:        0.0617 deg
RA of node:       340.8332 deg
Eccentricity:    0.0004451
Arg of perigee:   338.0823 deg
Mean anomaly:     180.6096 deg
Mean motion:    1.00271470 rev/day
Decay rate:    1.3000E-007 rev/day^2
Epoch rev:            2507
Checksum:              263

Satellite: ASTRA 1F
Catalog number: 23842
Epoch time:      103037.00000000
Element set:     558 
Inclination:        0.0122 deg
RA of node:       319.8851 deg
Eccentricity:    0.0002995
Arg of perigee:    65.1991 deg
Mean anomaly:     129.8369 deg
Mean motion:    1.00273184 rev/day
Decay rate:    1.2100E-006 rev/day^2
Epoch rev:            2499
Checksum:              254

Satellite: JAS 2
Catalog number: 24278
Epoch time:      103036.96872375
Element set:     558 
Inclination:       98.5339 deg
RA of node:       189.8992 deg
Eccentricity:    0.0349898
Arg of perigee:   249.1829 deg
Mean anomaly:     107.1505 deg
Mean motion:   13.52870728 rev/day
Decay rate:    1.1000E-007 rev/day^2
Epoch rev:           31960
Checksum:              358

Satellite: UNAMSAT
Catalog number: 24305
Epoch time:      103036.73925033
Element set:     660 
Inclination:       82.9387 deg
RA of node:       272.2755 deg
Eccentricity:    0.0028746
Arg of perigee:   236.8152 deg
Mean anomaly:     123.0243 deg
Mean motion:   13.73450032 rev/day
Decay rate:    2.0499E-006 rev/day^2
Epoch rev:           32172
Checksum:              287

Satellite: INMARSAT 3-F2
Catalog number: 24307
Epoch time:      103032.96911458
Element set:     79 
Inclination:        0.0664 deg
RA of node:        16.8716 deg
Eccentricity:    0.0004612
Arg of perigee:   287.1197 deg
Mean anomaly:     161.0756 deg
Mean motion:    1.00270670 rev/day
Decay rate:   -1.3400E-006 rev/day^2
Epoch rev:            2345
Checksum:              269

Satellite: HOT BIRD 2
Catalog number: 24665
Epoch time:      103022.98977813
Element set:     340 
Inclination:        0.0347 deg
RA of node:       162.8644 deg
Eccentricity:    0.0004202
Arg of perigee:   151.1719 deg
Mean anomaly:     177.1880 deg
Mean motion:    1.00271548 rev/day
Decay rate:    9.9999E-009 rev/day^2
Epoch rev:            2299
Checksum:              314

Satellite: INMARSAT 3-F3
Catalog number: 24674
Epoch time:      103037.32828398
Element set:     984 
Inclination:        0.0324 deg
RA of node:       323.7223 deg
Eccentricity:    0.0004298
Arg of perigee:   342.8059 deg
Mean anomaly:     125.8218 deg
Mean motion:    1.00274940 rev/day
Decay rate:    4.1999E-007 rev/day^2
Epoch rev:            2246
Checksum:              308

Satellite: GOES 10
Catalog number: 24786
Epoch time:      103036.26833550
Element set:     531 
Inclination:        0.1053 deg
RA of node:       107.8644 deg
Eccentricity:    0.0003009
Arg of perigee:   218.4163 deg
Mean anomaly:     131.0740 deg
Mean motion:    1.00287639 rev/day
Decay rate:    8.1000E-007 rev/day^2
Epoch rev:            2120
Checksum:              346

Satellite: INMARSAT 3-F4
Catalog number: 24819
Epoch time:      103037.38519204
Element set:     876 
Inclination:        0.0831 deg
RA of node:       290.6717 deg
Eccentricity:    0.0003640
Arg of perigee:    62.2683 deg
Mean anomaly:     227.8095 deg
Mean motion:    1.00273501 rev/day
Decay rate:   -2.8399E-006 rev/day^2
Epoch rev:            2088
Checksum:              299

Satellite: FENGYUN 2A
Catalog number: 24834
Epoch time:      103036.62443500
Element set:     953 
Inclination:        2.5408 deg
RA of node:        88.5989 deg
Eccentricity:    0.0003098
Arg of perigee:   270.1852 deg
Mean anomaly:      86.7163 deg
Mean motion:    1.00259668 rev/day
Decay rate:   -1.8700E-006 rev/day^2
Epoch rev:            2070
Checksum:              403

Satellite: HOT BIRD 3
Catalog number: 24931
Epoch time:      103023.22766377
Element set:     421 
Inclination:        0.0604 deg
RA of node:       227.5595 deg
Eccentricity:    0.0010036
Arg of perigee:    81.3762 deg
Mean anomaly:     268.1866 deg
Mean motion:    1.00274291 rev/day
Decay rate:    9.9999E-009 rev/day^2
Epoch rev:            1980
Checksum:              302

Satellite: METEOSAT 7
Catalog number: 24932
Epoch time:      103036.14549770
Element set:     242 
Inclination:        0.1892 deg
RA of node:        55.0854 deg
Eccentricity:    0.0001296
Arg of perigee:   238.5661 deg
Mean anomaly:     253.7886 deg
Mean motion:    1.00277057 rev/day
Decay rate:   -3.9999E-008 rev/day^2
Epoch rev:            1988
Checksum:              331

Satellite: ASTRA 1G
Catalog number: 25071
Epoch time:      103037.00000000
Element set:     389 
Inclination:        0.0122 deg
RA of node:       319.8851 deg
Eccentricity:    0.0002995
Arg of perigee:    65.1991 deg
Mean anomaly:     129.8159 deg
Mean motion:    1.00273184 rev/day
Decay rate:    1.2100E-006 rev/day^2
Epoch rev:            1901
Checksum:              236

Satellite: INMARSAT 3-F5
Catalog number: 25153
Epoch time:      103037.01271413
Element set:     840 
Inclination:        0.4525 deg
RA of node:       356.9427 deg
Eccentricity:    0.0004508
Arg of perigee:   320.3308 deg
Mean anomaly:     208.0530 deg
Mean motion:    1.00275959 rev/day
Decay rate:    1.4199E-006 rev/day^2
Epoch rev:            1837
Checksum:              271

Satellite: HOT BIRD 4
Catalog number: 25237
Epoch time:      103013.80550721
Element set:     325 
Inclination:        0.0242 deg
RA of node:       116.4838 deg
Eccentricity:    0.0007929
Arg of perigee:   193.6371 deg
Mean anomaly:     105.7449 deg
Mean motion:    1.00276095 rev/day
Decay rate:    1.0700E-006 rev/day^2
Epoch rev:            1818
Checksum:              265

Satellite: NOAA 15
Catalog number: 25338
Epoch time:      103037.09328904
Element set:     996 
Inclination:       98.5501 deg
RA of node:        59.5811 deg
Eccentricity:    0.0010758
Arg of perigee:   358.5566 deg
Mean anomaly:       1.5580 deg
Mean motion:   14.24238665 rev/day
Decay rate:    2.0200E-006 rev/day^2
Epoch rev:           24602
Checksum:              307

Satellite: RESURS O1-N4
Catalog number: 25394
Epoch time:      103037.40881990
Element set:     441 
Inclination:       98.6350 deg
RA of node:       115.5623 deg
Eccentricity:    0.0002046
Arg of perigee:   123.3446 deg
Mean anomaly:     236.7930 deg
Mean motion:   14.23872739 rev/day
Decay rate:    1.2599E-006 rev/day^2
Epoch rev:           23780
Checksum:              316

Satellite: TMSAT
Catalog number: 25396
Epoch time:      103035.97011131
Element set:     824 
Inclination:       98.6295 deg
RA of node:       113.3420 deg
Eccentricity:    0.0003274
Arg of perigee:   153.1916 deg
Mean anomaly:     206.9434 deg
Mean motion:   14.23506414 rev/day
Decay rate:   -4.3000E-007 rev/day^2
Epoch rev:           23759
Checksum:              276

Satellite: TECHSAT 1B
Catalog number: 25397
Epoch time:      103035.63506632
Element set:     135 
Inclination:       98.6227 deg
RA of node:       111.9131 deg
Eccentricity:    0.0001642
Arg of perigee:   150.2515 deg
Mean anomaly:     209.8757 deg
Mean motion:   14.22956023 rev/day
Decay rate:   -4.3000E-007 rev/day^2
Epoch rev:           23751
Checksum:              275

Satellite: ASTRA 2A
Catalog number: 25462
Epoch time:      103037.00000000
Element set:     530 
Inclination:        0.0385 deg
RA of node:       308.7109 deg
Eccentricity:    0.0004824
Arg of perigee:   280.8620 deg
Mean anomaly:     294.3465 deg
Mean motion:    1.00272094 rev/day
Decay rate:    1.5099E-006 rev/day^2
Epoch rev:            1631
Checksum:              238

Satellite: EUTELSAT W2
Catalog number: 25491
Epoch time:      103036.85087736
Element set:     573 
Inclination:        0.0137 deg
RA of node:       106.7650 deg
Eccentricity:    0.0004073
Arg of perigee:   150.7047 deg
Mean anomaly:     200.4122 deg
Mean motion:    1.00272599 rev/day
Decay rate:    1.0400E-006 rev/day^2
Epoch rev:            1592
Checksum:              251

Satellite: HOT BIRD 5
Catalog number: 25495
Epoch time:      103035.83327321
Element set:     498 
Inclination:        0.0140 deg
RA of node:       177.2392 deg
Eccentricity:    0.0004088
Arg of perigee:   140.2514 deg
Mean anomaly:     150.1503 deg
Mean motion:    1.00275202 rev/day
Decay rate:    1.5199E-006 rev/day^2
Epoch rev:            1588
Checksum:              260

Satellite: SEDSAT 1
Catalog number: 25509
Epoch time:      103036.71314972
Element set:     772 
Inclination:       31.4279 deg
RA of node:       225.7753 deg
Eccentricity:    0.0357762
Arg of perigee:   190.6789 deg
Mean anomaly:     168.6064 deg
Mean motion:   14.27411462 rev/day
Decay rate:    7.0500E-006 rev/day^2
Epoch rev:           22347
Checksum:              317

Satellite: PAN SAT
Catalog number: 25520
Epoch time:      103035.97864957
Element set:     636 
Inclination:       28.4590 deg
RA of node:       314.3667 deg
Eccentricity:    0.0005515
Arg of perigee:   201.0861 deg
Mean anomaly:     158.9512 deg
Mean motion:   15.13808697 rev/day
Decay rate:    2.9060E-005 rev/day^2
Epoch rev:           23552
Checksum:              314

Satellite: ISS (ZARYA)
Catalog number: 25544
Epoch time:      103037.51899306
Element set:     660 
Inclination:       51.6375 deg
RA of node:       316.5295 deg
Eccentricity:    0.0005568
Arg of perigee:   117.5764 deg
Mean anomaly:     237.0352 deg
Mean motion:   15.60385930 rev/day
Decay rate:    2.8139E-004 rev/day^2
Epoch rev:           24061
Checksum:              417

